Regional Weather Roundup
Issued by NWS

Home | Current Version | Previous Version | Text Only | Print | Product List | Glossary Off
Versions: 1 2 3 4 5 6 7 8 9 10 11 12 13 14 15 16 17 18 19 20 21 22 23 24 25 26 27 28 29 30 31 32 33 34 35 36 37 38 39 40 41 42 43 44 45 46 47 48 49 50

060
ASUS44 KLIX 061401
RWRLA
LOUISIANA WEATHER ROUNDUP
NATIONAL WEATHER SERVICE NEW ORLEANS LA
800 AM CST FRI MAR 06 2015

NOTE: "FAIR" INDICATES FEW OR NO CLOUDS BELOW 12,000 FEET WITH NO
      SIGNIFICANT WEATHER AND/OR OBSTRUCTIONS TO VISIBILITY.
      SKY/WX - SKY CONDITION AND SIGNIFICANT WEATHER.
      TMP - AIR TEMPERATURE.    DP   - DEWPOINT TEMPERATURE.
      RH  - RELATIVE HUMIDITY.  PRES - PRESSURE.
      HX  - HEAT INDEX.         WCI  - WIND CHILL INDEX.

*  THESE STATIONS ARE NOT NWS OR FAA STATIONS AND ARE NOT UNDER
   NWS QUALITY CONTROL.

LAZ040-048-061>063-065-066-069-061500-
SOUTHEAST LOUISIANA

CITY           SKY/WX    TMP DP  RH WIND       PRES   REMARKS
N.O. AUDUBON     N/A     36  26  67 MISG        N/A
N.O. INTL ARPT MOSUNNY   33  23  66 N18G24    30.49R WCI  22
N.O. LAKEFRONT SUNNY     35  24  64 N21G29    30.50R WCI  24
SLIDELL        SUNNY     32  19  58 N17       30.48R WCI  21
BATON ROUGE    MOSUNNY   29  15  56 N8        30.54R WCI  21
BOOTHVILLE     SUNNY     39  29  67 N10G21    30.44R WCI  32
BELLE CHASSE   PTSUNNY   35  21  56 N9G21     30.47R WCI  28
BOGALUSA*        N/A     30  20  65 N7G18     30.53R WCI  24
GALLIANO*      SUNNY     38  27  66 N15G24    30.46S WCI  29
NEW ROADS*     NOT AVBL
GONZALES*      NOT AVBL
HAMMOND*       NOT AVBL
HOUMA*         MOSUNNY   32  23  69 N13G21    30.48R WCI  22
PORT FOURCHON* SUNNY     37  27  65 N14G23    30.49R WCI  29

$$

LAZ041-044-053-054-061500-
SOUTHWEST LOUISIANA

CITY           SKY/WX    TMP DP  RH WIND       PRES   REMARKS
LAKE CHARLES   SUNNY     33  17  51 NE17G24   30.56R WCI  22
LAFAYETTE      MOSUNNY   31  14  49 N16       30.54R WCI  20
PATTERSON      SUNNY     32  18  55 N16       30.51R WCI  21
SALT POINT       N/A     33  18  53 N8G17     30.49R WCI  26
NEW IBERIA     NOT AVBL
CHENAULT AIRPK MOSUNNY   30  18  59 N12G18    30.57R WCI  21

$$

LAZ027-028-061500-
CENTRAL LOUISIANA

CITY           SKY/WX    TMP DP  RH WIND       PRES   REMARKS
FORT POLK      SUNNY     29  16  59 N7        30.57R WCI  22
ALEXANDRIA INT SUNNY     28  20  71 N7        30.60R WCI  21
ALEXANDRIA     SUNNY     30  17  58 VRB5      30.59R WCI  25

$$

LAZ001-002-061500-
NORTHWEST LOUISIANA

CITY           SKY/WX    TMP DP  RH WIND       PRES   REMARKS
SHREVEPORT     MOSUNNY   31  24  75 CALM      30.61R
BARKSDALE AFB  SUNNY     28  23  80 CALM      30.62R
DTN SHREVEPORT SUNNY     29  26  89 CALM      30.62R

$$

LAZ014-016-061500-
NORTHEAST LOUISIANA

CITY           SKY/WX    TMP DP  RH WIND       PRES   REMARKS
MONROE         MOSUNNY   28  20  71 N7        30.64R WCI  21
TALLULAH       SUNNY     28  15  58 NE9       30.61R WCI  19

$$




USA.gov is the U.S. government's official web portal to all federal, state and local government web resources and services.